Location: Goheenville
(40.9070°N, 79.3720°W)
Time: 01:30:05
(UTC-04:00)

Meteor 2-10 Rocket - Visible Passes

Search period start: 26 March 2017 00:00
Search period end: 05 April 2017 00:00
Orbit: 735 x 884 km, 81.2° (Epoch: 24 March)

Date Brightness Start Highest point End Pass type
(mag) Time Alt. Az. Time Alt. Az. Time Alt. Az.
26 Mar 6.5 01:53:04 11° NNE 01:53:04 11° NNE 01:53:21 10° NNE visible
26 Mar 6.3 03:34:12 10° NNW 03:34:12 10° NNW 03:34:18 10° NNW visible
27 Mar 6.3 03:10:02 12° NNW 03:10:02 12° NNW 03:10:34 10° NNW visible
28 Mar 6.3 02:45:53 14° N 02:45:53 14° N 02:46:38 10° N visible
29 Mar 6.3 02:21:42 14° N 02:21:42 14° N 02:22:35 10° N visible
30 Mar 6.3 01:57:32 15° N 01:57:32 15° N 01:58:26 10° N visible
31 Mar 6.3 01:33:20 15° N 01:33:20 15° N 01:34:12 10° N visible
01 Apr 6.4 01:09:08 14° NNE 01:09:08 14° NNE 01:09:52 10° NNE visible
01 Apr 6.3 02:50:16 11° NNW 02:50:16 11° NNW 02:50:40 10° NNW visible
02 Apr 6.4 00:44:56 12° NNE 00:44:56 12° NNE 00:45:26 10° NNE visible
02 Apr 6.3 02:26:03 14° NNW 02:26:03 14° NNW 02:26:58 10° NNW visible
03 Apr 6.4 00:20:42 11° NNE 00:20:42 11° NNE 00:20:53 10° NNE visible
03 Apr 6.2 02:01:50 16° NNW 02:01:50 16° NNW 02:03:04 10° N visible
04 Apr 6.1 01:37:36 18° N 01:37:36 18° N 01:39:02 10° N visible
